Location: Newark
(35.6799°N, 139.7636°E)
Time: 23:03:22
(UTC+00:00)

Vanguard 3 - Pass Details

Date: 15 December 2019
Orbit: 507 x 3264 km, 33.4° (Epoch: 28 January)

Event Time Altitude Azimuth Distance (km) Brightness Sun altitude
Exits shadow 19:00:03 11° 164° (SSE) 1,971 9.3 -32.3°
Maximum altitude 19:01:55 14° 138° (SE) 1,977 9.6 -31.9°
Drops below altitude 10° 19:04:37 10° 109° (ESE) 2,493 10.5 -31.4°
Sets 19:09:16 0° 86° (E) 3,981 11.8 -30.4°
